Regional Weather Roundup
Issued by NWS

Home | Current Version | Previous Version | Graphics & Text | Print | Product List | Glossary On
Versions: 1 2 3 4 5 6 7 8 9 10 11 12 13 14 15 16 17 18 19 20 21 22 23 24 25 26 27 28 29 30 31 32 33 34 35 36 37 38 39 40 41 42 43 44 45 46 47 48 49 50
000
ASUS44 KMEG 281300
RWRTN
TENNESSEE HOURLY STATE WEATHER ROUNDUP
NATIONAL WEATHER SERVICE MEMPHIS TN
700 AM CST FRI NOV 28 2014

TNZ002-004-019-021-049-052-054-088>092-281400-
WEST TENNESSEE

CITY           SKY/WX    TMP DP  RH WIND       PRES   REMARKS
MEMPHIS INTL   CLEAR     32  24  72 SE7       30.41R WCI  26
NWS MEMPHIS      N/A     29 N/A N/A MISG        N/A
JACKSON        CLEAR     28  21  75 S3        30.42S
DYERSBURG      CLEAR     28  14  54 SE6       30.42F WCI  22
UNION CITY     CLEAR     21  21 100 SE5       30.40S WCI  15
PARIS          CLEAR     21  18  86 S5        30.41R WCI  15
LEXINGTON      CLEAR     21  19  93 CALM      30.41S
SAVANNAH       CLEAR     23  19  86 SE5       30.42F WCI  17
$$

TNZ008-025-027-028-033-062-065-066-281400-
NORTH MIDDLE TENNESSEE

CITY           SKY/WX    TMP DP  RH WIND       PRES   REMARKS
NASHVILLE      PTCLDY    23  21  92 S3        30.44F
CLARKSVILLE    PTCLDY    25  22  88 SE6       30.41F WCI  18
COOKEVILLE     CLEAR     21  19  93 CALM      30.43R
CROSSVILLE     CLEAR     22  16  78 N3        30.38R
$$

TNZ061-075-076-078-094-096-097-281400-
SOUTH MIDDLE TENNESSEE

CITY           SKY/WX    TMP DP  RH WIND       PRES   REMARKS
TULLAHOMA      CLEAR     18  14  86 CALM      30.43R
WINCHESTER     CLEAR     19  18  93 CALM      30.44R
SHELBYVILLE    CLEAR     19  19 100 E5        30.45S WCI  13
$$

TNZ017-018-042-046-047-281400-
NORTHEAST TENNESSEE

CITY           SKY/WX    TMP DP  RH WIND       PRES   REMARKS
TRI CITIES     PTCLDY    26  18  71 W5        30.37R WCI  20
ELIZABETHTON   MOSUNNY   25  19  80 SW6       30.35S WCI  18
$$

TNZ012-013-036-069-073-074-281400-
CENTRAL EAST TENNESSEE

CITY           SKY/WX    TMP DP  RH WIND       PRES   REMARKS
KNOXVILLE      PTCLDY    26  20  77 NW6       30.44R WCI  19
OAK RIDGE      PTCLDY    26  21  81 CALM      30.44R
GATLINBURG     SUNNY     21  19  93 CALM      30.41R
$$

TNZ083-085-099-281400-
SOUTHEAST TENNESSEE

CITY           SKY/WX    TMP DP  RH WIND       PRES   REMARKS
CHATTANOOGA    PTCLDY    28  19  69 NW3       30.44R
$$

SKY/WX REPORTED AS FAIR MEANS FEW OR NO CLOUDS BELOW
12 THOUSAND FEET.



USA.gov is the U.S. government's official web portal to all federal, state and local government web resources and services.